Location: Northcutt
(34.7304°N, 84.4305°W)
Time: 15:15:23
(UTC+00:00)

Hubble Space Telescope - Pass Details

Date: 12 August 2022
Orbit: 531 x 535 km, 28.5° (Epoch: 27 September)

Event Time Altitude Azimuth Distance (km) Brightness Sun altitude
Rises 02:55:21 0° 261° (W) 2,669 4.8 -26.3°
Reaches altitude 10° 02:58:00 10° 246° (WSW) 1,777 3.6 -26.7°
Enters shadow 02:58:30 12° 240° (WSW) 1,632 3.4 -26.8°
